Content
SEND FEEDBACK

Daily
Averages
Monthly
Summary
United States of America

NEW YORK - CENTRAL PARK, NEW YORK


Home > North America > United States > New York
Elevation: 4 meters     Latitude: 40 47N     Longitude: 073 58W

WEATHER
 
SELECT A DAY
Number of Records: 152,321;   Date Range: 11/1/95 - 11/27/14
 
SHARE

PRINT THIS DATA

[ ← Previous Day ]
WEATHER ALMANAC - 23 MARCH, 2013
[ Next Day → ]
[ °F ]   °C
Weather ElementAverageHighLow
Temperature3.8 °C7.2 °C (3:51 pm)0.6 °C (6:51 am)
Dewpoint-8.3 °C-6.1 °C (1:51 am)-9.4 °C (6:51 pm)
Humidity42 %57 % (1:51 am)31 % (3:51 pm)
Barometer1011.5 hPa1013.5 hPa (11:51 pm)1009.8 hPa (3:51 pm)
Wind Speed15.1 km/h22.2 km/h (11:51 am)
Wind Gust42.6 km/h (5:51 pm)
Weather ElementAverage
Visibility16.1 km
Wind DirectionSW (229.6 °)

Weather ElementTotal
Precipitation---
Heating Degree Days14.4 (Base 18.3)
Averaged from 23 records on 23 March, 2013
WEATHER CONDITIONS BREAKOUT
WIND DIRECTION BREAKOUT
WEATHER BY HOUR - 23 MARCH, 2013
[ °F ]   °C
Local TimeTemperatureDewpointHumidityBarometerVisibilityWind DirectionWind SpeedGust SpeedPrecipitationEventsConditions
1:51 AM1.7 °C-6.1 °C57 %1011.5 hPa16.1 kmWest (280°)11.1 km/hPartly Cloudy
2:51 AM2.2 °C-8.3 °C46 %1011.9 hPa16.1 kmWNW (290°)14.8 km/hOvercast
3:51 AM1.7 °C-8.9 °C46 %1010.8 hPa16.1 kmVariable7.4 km/h31.5 km/hClear
4:51 AM1.7 °C-8.9 °C46 %1011.2 hPa16.1 kmVariable9.3 km/hClear
5:51 AM1.1 °C-8.3 °C50 %1011.5 hPa16.1 kmWNW (290°)13 km/h25.9 km/hPartly Cloudy
6:51 AM0.6 °C-7.8 °C54 %1011.9 hPa16.1 kmVariable11.1 km/hClear
7:51 AM1.1 °C-7.8 °C52 %1011.9 hPa16.1 kmWest (280°)14.8 km/h29.6 km/hClear
8:51 AM2.2 °C-7.8 °C48 %1011.5 hPa16.1 kmWest (280°)13 km/h40.7 km/hClear
9:51 AM2.8 °C-7.8 °C46 %1011.2 hPa16.1 kmWest (280°)20.4 km/h37 km/hClear
10:51 AM3.9 °C-7.2 °C45 %1010.8 hPa16.1 kmWNW (300°)18.5 km/h40.7 km/hClear
11:51 AM5 °C-7.8 °C40 %1011.2 hPa16.1 kmWNW (290°)22.2 km/h38.9 km/hScattered Clouds
12:51 PM5.6 °C-8.3 °C37 %1011.2 hPa16.1 kmWNW (300°)16.7 km/h37 km/hOvercast
1:51 PM6.1 °C-8.3 °C35 %1010.5 hPa16.1 kmWNW (290°)14.8 km/h40.7 km/hOvercast
2:51 PM6.1 °C-8.9 °C34 %1010.2 hPa16.1 kmWest (280°)20.4 km/h40.7 km/hMostly Cloudy
3:51 PM7.2 °C-8.9 °C31 %1009.8 hPa16.1 kmWNW (300°)14.8 km/h37 km/hMostly Cloudy
4:51 PM6.1 °C-8.3 °C35 %1010.2 hPa16.1 kmWest (280°)16.7 km/h35.2 km/hPartly Cloudy
5:51 PM6.1 °C-8.9 °C34 %1010.5 hPa16.1 kmWNW (300°)20.4 km/h42.6 km/hScattered Clouds
6:51 PM6.1 °C-9.4 °C32 %1011.2 hPa16.1 kmWNW (300°)16.7 km/h33.3 km/hOvercast
7:51 PM5 °C-8.9 °C36 %1011.5 hPa16.1 kmNW (310°)20.4 km/h37 km/hClear
8:51 PM4.4 °C-8.9 °C38 %1012.5 hPa16.1 kmNW (320°)13 km/h31.5 km/hClear
9:51 PM3.9 °C-8.9 °C39 %1012.9 hPa16.1 kmVariable9.3 km/h25.9 km/hClear
10:51 PM3.3 °C-8.9 °C41 %1013.2 hPa16.1 kmNW (310°)13 km/h33.3 km/hPartly Cloudy
11:51 PM2.8 °C-8.3 °C44 %1013.5 hPa16.1 kmNorthClear
Hourly data recorded from KNYC, located 0 kilometers away from New York - Central Park, New York







STORIES FROM OUR PARTNERS